Location: Wells
(51.2093°N, 2.6446°W)
Time: 04:00:37
(UTC+00:00)

ISS - Pass Details

Date: 26 January 2026
Orbit: 413 x 429 km, 51.6° (Epoch: 10 February)

Event Time Altitude Azimuth Distance (km) Brightness Sun altitude
Rises 18:31:39 0° 285° (WNW) 2,365 1.3 -15.7°
Reaches altitude 10° 18:33:48 10° 278° (W) 1,502 0.2 -16.0°
Maximum altitude 18:37:00 41° 207° (SSW) 627 -2.6 -16.5°
Enters shadow 18:38:56 20° 146° (SE) 1,038 -2.0 -16.8°
